sat.trackr.live / text

‹ back to catalog

MICROCARB

NORAD 64899 · 2025-156A

PAYLOAD ACTIVE UNKNOWN

§ Identity

Operator
Country
FR
Launch date
2025-07-26
Launch site
FRGUI
Launch vehicle
Mass (kg)
RCS (m²)

Purposes: earth_obs

External: N2YO · Heavens-Above · Gunter

§ Orbital elements

Epoch: 2026-09-19T22:07:52.768128Z

Period
97.77 min
Inclination
98.0094°
Eccentricity
0.0016871
Mean motion
14.72850258 rev/d
Perigee alt
640.1 km
Apogee alt
663.8 km
Semi-major
7,030.1 km
B*
5.2225e-5
RAAN
338.6695°
Arg perigee
325.3494°
Mean anomaly
34.6613°
Rev number
6,191

§ Raw data

MICROCARB1 64899U 25156A   26262.92213852  .00000284  00000+0  52225-4 0  99982 64899  98.0094 338.6695 0016871 325.3494  34.6613 14.72850258 61913

JSON: /api/v1/satellites/64899 · /tle

For live sub-satellite position, see the globe view (requires WebGL).

§ Visibility from observer

Set your observer location to see the next 7 days of passes ≥ 10°. The values pass through the URL so the page stays shareable.

No JS? Fill the form by hand. The geolocation button needs JavaScript.